Wormley Airport

Jump to: basic info | weather | runways | comments

Related pages: nearby airports | nearby navaids | notams | map

Basic information (top)

Codes: 85LL
Location: lon 41.683899, lat -88.262299, elev 680 ft / 207 m msl
Status: small_airport

Weather (top)

Current conditions for Lewis University Airport 9nm (16km) ESE (rec'd 2014/10/26 02:35Z):

KLOT 260235Z AUTO 31006KT 10SM CLR 12/00 A2999

Airport forecast for Dupage Airport 13nm (25km) N (rec'd 2014/10/25 00:24Z):

TAF KDPA 252320Z 2600/2624 29008KT P6SM SKC 
     FM260500 32004KT P6SM SKC 
     FM261300 VRB03KT P6SM SKC 
     FM261900 15007KT P6SM SKC

Runways (top)

N/S: 2,300 x 100 ft (701 x 30 m) — grass — not lighted

Latest comments (top)

No comments yet for Wormley Airport

More... (top)

See also NOTAMs and nearby airports and navaids, or visit the Wormley Airport page at the main OurAirports website..